Content
SEND FEEDBACK

Daily
Averages
Monthly
Summary
United States of America

TRUESDALE, MISSOURI


Home > North America > United States > Missouri
Elevation: 843 feet     Latitude: 38 36N     Longitude: 091 12W

WEATHER
 
SELECT A DAY
Number of Records: 189,976;   Date Range: 1/1/95 - 11/24/14
 
SHARE

PRINT THIS DATA

[ ← Previous Day ]
WEATHER ALMANAC - FEBRUARY 21, 2013
[ Next Day → ]
[ °C ]   °F
Weather ElementAverageHighLow
Temperature27.1 °F32 °F (9:53 pm)19.9 °F (1:53 am)
Dewpoint22.1 °F30.2 °F (10:24 pm)14 °F (1:53 am)
Humidity81.7 %93 % (1:40 pm)66 % (7:53 am)
Barometer30.06 in30.34 in (1:53 am)29.84 in (10:24 pm)
Wind Speed12.8 mph27.6 mph (3:53 pm)
Wind Gust35.7 mph (3:59 pm)
Weather ElementAverage
Visibility4.8 mi
Wind DirectionENE (83.8 °)

Weather ElementTotal
Precipitation0.75 in
Heating Degree Days39.1 (Base 65)
Averaged from 42 records on February 21, 2013
WEATHER CONDITIONS BREAKOUT
WIND DIRECTION BREAKOUT
WEATHER BY HOUR - FEBRUARY 21, 2013
[ °C ]   °F
Local TimeTemperatureDewpointHumidityBarometerVisibilityWind DirectionWind SpeedGust SpeedPrecipitationEventsConditions
1:53 AM19.9 °F14.0 °F78 %30.34 in10.0 miNE (50°)3.5 mphClear
2:53 AM21.0 °F15.1 °F78 %30.32 in10.0 miCalmMostly Cloudy
3:53 AM23.0 °F15.1 °F72 %30.30 in10.0 miNE (40°)4.6 mphOvercast
4:53 AM23.0 °F16.0 °F74 %30.25 in10.0 miEast (90°)10.4 mphOvercast
5:53 AM24.1 °F16.0 °F71 %30.28 in10.0 miESE (110°)8.1 mphOvercast
6:53 AM25.0 °F16.0 °F69 %30.23 in10.0 miENE (70°)10.4 mphOvercast
7:53 AM26.1 °F16.0 °F66 %30.28 in10.0 miEast (90°)12.7 mphOvercast
8:53 AM26.1 °F16.0 °F66 %30.25 in10.0 miEast (90°)13.8 mphOvercast
9:53 AM26.1 °F16.0 °F66 %30.22 in10.0 miEast (90°)13.8 mphOvercast
10:24 AM26.6 °F17.6 °F69 %30.13 in1.8 miEast (90°)16.1 mph25.3 mph0.01 inSnowLight Snow
10:33 AM26.6 °F19.4 °F74 %30.12 in3.0 miEast (80°)18.4 mph23.0 mph0.02 inOvercast
10:48 AM26.6 °F19.4 °F74 %30.13 in8.0 miEast (90°)10.4 mph24.2 mph0.03 inRainLight Freezing Rain
10:53 AM26.1 °F19.9 °F78 %30.17 in9.0 miENE (70°)8.1 mph20.7 mph0.03 inRainLight Freezing Rain
11:15 AM26.6 °F19.4 °F74 %30.12 in8.0 miEast (90°)15.0 mph0.00 inSnowLight Snow
11:22 AM26.6 °F19.4 °F74 %30.09 in1.8 miEast (80°)19.6 mph0.00 inSnowLight Snow
11:34 AM26.6 °F21.2 °F80 %30.11 in1.0 miEast (100°)13.8 mph0.00 inSnowLight Snow
11:42 AM26.6 °F21.2 °F80 %30.07 in0.5 miEast (90°)23.0 mph27.6 mph0.01 inSnowSnow
11:53 AM26.1 °F21.0 °F81 %30.08 in1.0 miEast (80°)16.1 mph23.0 mph0.01 inSnowLight Snow
12:53 PM26.1 °F21.9 °F84 %30.12 in1.0 miNE (40°)10.4 mph0.05 inSnowLight Snow
1:03 PM26.6 °F23.0 °F86 %30.12 in0.5 miNE (40°)9.2 mph0.02 inFog-SnowSnow
1:22 PM24.8 °F21.2 °F86 %30.11 in0.2 miNNE (30°)12.7 mph0.04 inFog-SnowSnow
1:40 PM24.8 °F23.0 °F93 %30.13 in0.2 miNE (40°)8.1 mph0.07 inFog-SnowSnow
1:51 PM24.8 °F23.0 °F93 %30.12 in0.5 miNE (40°)11.5 mph0.08 inFog-SnowSnow
1:53 PM25.0 °F21.9 °F88 %30.14 in0.2 miNE (40°)10.4 mph0.09 inFog-SnowSnow
3:11 PM26.6 °F23.0 °F86 %29.99 in0.5 miENE (70°)18.4 mph0.04 inFog-SnowLight Snow
3:36 PM26.6 °F21.2 °F80 %29.94 in1.8 miEast (80°)23.0 mph33.4 mph0.05 inOvercast
3:44 PM26.6 °F23.0 °F86 %29.93 in1.8 miEast (80°)23.0 mph29.9 mph0.05 inOvercast
3:53 PM27.0 °F23.0 °F85 %29.94 in1.8 miEast (80°)27.6 mph34.5 mph0.05 inOvercast
3:59 PM26.6 °F23.0 °F86 %29.93 in3.0 miEast (90°)19.6 mph35.7 mph0.00 inOvercast
4:23 PM28.4 °F24.8 °F86 %29.92 in4.0 miEast (90°)23.0 mph31.1 mph0.01 inRainLight Freezing Rain
4:53 PM28.9 °F24.1 °F82 %29.91 in8.0 miEast (100°)17.3 mph29.9 mph0.02 inRainLight Freezing Rain
5:53 PM30.0 °F26.1 °F85 %29.91 in5.0 miESE (120°)18.4 mph25.3 mph0.02 inLight Freezing Drizzle
6:53 PM30.9 °F27.0 °F85 %29.88 in6.0 miESE (120°)12.7 mph18.4 mph0.02 inRainLight Freezing Rain
7:40 PM30.2 °F26.6 °F86 %29.88 in9.0 miSE (130°)13.8 mph21.9 mph0.00 inOvercast
7:53 PM30.9 °F27.0 °F85 %29.88 in10.0 miESE (120°)11.5 mph0.00 inOvercast
8:53 PM30.9 °F28.0 °F89 %29.88 in4.0 miSE (140°)9.2 mphOvercast
8:57 PM30.2 °F28.4 °F93 %29.87 in3.0 miSE (130°)9.2 mph0.00 inRainLight Freezing Rain
9:07 PM30.2 °F28.4 °F93 %29.87 in2.0 miSE (140°)9.2 mph0.01 inRainLight Freezing Rain
9:53 PM32.0 °F30.0 °F92 %29.87 in2.5 miSE (140°)6.9 mph0.02 inRainLight Freezing Rain
10:24 PM32.0 °F30.2 °F93 %29.84 in3.0 miSE (130°)6.9 mph0.00 inRainLight Freezing Rain
10:53 PM32.0 °F30.0 °F92 %29.85 in5.0 miSE (130°)8.1 mph0.00 inOvercast
11:53 PM32.0 °F30.0 °F92 %29.85 in3.0 miCalmOvercast
Hourly data recorded from KCPS, located miles away from Truesdale, Missouri







STORIES FROM OUR PARTNERS